User: anonymous   Login
Location: ??????
(42.0089°N, 44.3281°E)
Time: 07:32:09
(UTC+00:00)
Language:

CZ-2C R/B - Orbit

View from above orbital plane
View from above orbital plane
View from above satellite
View from above satellite

Ground track
Ground track

The orbit data is extracted from the following two-line orbital elements,

1 31114U 07010B   22276.75767878  .00000226  00000-0  12398-3 0  9998
2 31114  98.2510  82.4354 0059307 343.1922  16.7289 14.19453513801920
Epoch (UTC): 03 October 2022 18:11:03
Eccentricity: 0.0059307
inclination: 98.2510°
perigee height: 784 km
apogee height: 870 km
right ascension of ascending node: 82.4354°
argument of perigee: 343.1922°
revolutions per day: 14.19453513
mean anomaly at epoch: 16.7289°
orbit number at epoch: 80192

The dashed part of the orbit path shows where the satellite is in the earth's shadow,  

DLR